History for ZJSY

Yaxian, HA

Daily Weekly Monthly
Daily Summary for Monday, March 25, 2019
  Actual: Average: Record:
Temperature
Mean Temperature: 78 °F / 26 °C - :  
Max Temperature: 86 °F / 30 °C - - (-1)
Min Temperature: 71 °F / 22 °C - - (-1)
Cooling Degree Days 14    
Growing Degree Days 28 (Base 50)    
Moisture
Dew Point 72 °F / 22 °C    
Average Humidity 82    
Maximum Humidity 99    
Minimum Humidity 62    
Precipitation
Precipitation 0.00 in / 0.0 cm - - ()
Sea Level Pressure
Sea Level Pressure 29.96 in / 1014.38 hPa   
Wind
Wind Speed 5 mph / 8 km/h ()  
Max Wind Speed 9 mph / 14 km/h   
Max Gust Speed -   
Visibility 6.9 miles / 11.2 kilometers   
Events Fog   
Averages and records for this station are not official NWS values.
Key: T is trace of precipitation, MM is missing value
Source: Averaged Metar Reports

Graphs

Observations

History Graphs Observations

Obs Go Here...

Features

Weather Apps

WunderRadio

Weather Underground Apps
Check out our wide variety of mobile and setup applications.

Weather Underground Applications

Top of Page

© Copyright 2019
The Weather Company, LLC
Time(CST)TemperatureDew PointHumidity Sea Level Pressure Visibility Wind DirectionWind SpeedGust SpeedPrecipitationEvents Conditions
12:00 AM 77.0 °F / 25.0 °C 71.6 °F / 22.0 °C 83% 29.95 in / 1014 hPa - East 6.7 mph / 10.8 km/h - N/A   Clear
1:00 AM 77.0 °F / 25.0 °C 71.6 °F / 22.0 °C 83% 29.95 in / 1014 hPa - Variable 4.5 mph / 7.2 km/h - N/A   Clear
2:00 AM 71 °F / 22 °C 71 °F / 21 °C 98% 29.96 in / 1014 hPa 0 miles / 0.2 kilometers East 6.7 mph / 10.8 km/h - - Fog Heavy Fog
2:00 AM 75.2 °F / 24.0 °C 71.6 °F / 22.0 °C 89% 29.92 in / 1013 hPa - East 4.5 mph / 7.2 km/h - N/A   Clear
3:00 AM 75.2 °F / 24.0 °C 69.8 °F / 21.0 °C 83% 29.92 in / 1013 hPa - East 4.5 mph / 7.2 km/h - N/A   Clear
4:00 AM 73.4 °F / 23.0 °C 69.8 °F / 21.0 °C 88% 29.92 in / 1013 hPa 6.2 miles / 10.0 kilometers East 4.5 mph / 7.2 km/h - N/A   Partly Cloudy
5:00 AM 71 °F / 22 °C 70 °F / 21 °C 97% 29.95 in / 1014 hPa 0 miles / 0.1 kilometers NE 6.7 mph / 10.8 km/h - - Fog Partial Fog
5:00 AM 75.2 °F / 24.0 °C 69.8 °F / 21.0 °C 83% 29.92 in / 1013 hPa 6.2 miles / 10.0 kilometers NW 4.5 mph / 7.2 km/h - N/A   Partly Cloudy
6:00 AM 75.2 °F / 24.0 °C 71.6 °F / 22.0 °C 89% 29.95 in / 1014 hPa - Variable 2.2 mph / 3.6 km/h - N/A   Clear
7:00 AM 75.2 °F / 24.0 °C 71.6 °F / 22.0 °C 89% 29.95 in / 1014 hPa - Variable 2.2 mph / 3.6 km/h - N/A   Clear
8:00 AM 71 °F / 22 °C 71 °F / 21 °C 98% 30.01 in / 1016 hPa 12 miles / 20 kilometers ENE 6.7 mph / 10.8 km/h - -   Mostly Cloudy
8:00 AM 78.8 °F / 26.0 °C 71.6 °F / 22.0 °C 78% 29.98 in / 1015 hPa - ENE 4.5 mph / 7.2 km/h - N/A   Clear
9:00 AM 82.4 °F / 28.0 °C 71.6 °F / 22.0 °C 70% 30.01 in / 1016 hPa - East 8.9 mph / 14.4 km/h - N/A   Clear
10:00 AM 86.0 °F / 30.0 °C 71.6 °F / 22.0 °C 62% 30.01 in / 1016 hPa 6.2 miles / 10.0 kilometers ESE 6.7 mph / 10.8 km/h - N/A   Partly Cloudy
11:00 AM 79 °F / 26 °C 69 °F / 21 °C 65% 30.03 in / 1017 hPa 12 miles / 19 kilometers East 8.9 mph / 14.4 km/h - -   Mostly Cloudy
11:00 AM 82.4 °F / 28.0 °C 73.4 °F / 23.0 °C 74% 30.01 in / 1016 hPa 6.2 miles / 10.0 kilometers SSW 8.9 mph / 14.4 km/h - N/A   Scattered Clouds
1:00 PM 82.4 °F / 28.0 °C 73.4 °F / 23.0 °C 74% 29.98 in / 1015 hPa 6.2 miles / 10.0 kilometers South 8.9 mph / 14.4 km/h - N/A   Mostly Cloudy
2:00 PM 79 °F / 26 °C 70 °F / 21 °C 66% 29.97 in / 1015 hPa 17 miles / 27 kilometers ESE 6.7 mph / 10.8 km/h - -   Mostly Cloudy
2:00 PM 84.2 °F / 29.0 °C 73.4 °F / 23.0 °C 70% 29.95 in / 1014 hPa 6.2 miles / 10.0 kilometers SSE 8.9 mph / 14.4 km/h - N/A   Scattered Clouds
3:00 PM 84.2 °F / 29.0 °C 73.4 °F / 23.0 °C 70% 29.92 in / 1013 hPa 6.2 miles / 10.0 kilometers South 8.9 mph / 14.4 km/h - N/A   Scattered Clouds
4:00 PM 82.4 °F / 28.0 °C 75.2 °F / 24.0 °C 79% 29.92 in / 1013 hPa 6.2 miles / 10.0 kilometers Variable 6.7 mph / 10.8 km/h - N/A   Scattered Clouds
5:00 PM 74 °F / 23 °C 70 °F / 21 °C 84% 29.95 in / 1014 hPa 13 miles / 21 kilometers ESE 8.9 mph / 14.4 km/h - -   Mostly Cloudy
5:00 PM 80.6 °F / 27.0 °C 73.4 °F / 23.0 °C 79% 29.92 in / 1013 hPa 6.2 miles / 10.0 kilometers South 6.7 mph / 10.8 km/h - N/A   Scattered Clouds
6:00 PM 78.8 °F / 26.0 °C 73.4 °F / 23.0 °C 83% 29.92 in / 1013 hPa 6.2 miles / 10.0 kilometers South 4.5 mph / 7.2 km/h - N/A   Scattered Clouds
7:00 PM 78.8 °F / 26.0 °C 73.4 °F / 23.0 °C 83% 29.92 in / 1013 hPa - SSW 4.5 mph / 7.2 km/h - N/A   Clear
8:00 PM 71 °F / 22 °C 69 °F / 20 °C 89% 29.98 in / 1015 hPa 9 miles / 14 kilometers ESE 4.5 mph / 7.2 km/h - -   Mostly Cloudy
9:00 PM 78.8 °F / 26.0 °C 71.6 °F / 22.0 °C 78% 29.95 in / 1014 hPa - Variable 2.2 mph / 3.6 km/h - N/A   Clear
11:00 PM 71 °F / 22 °C 71 °F / 22 °C 99% 30.03 in / 1017 hPa 0 miles / 0.1 kilometers ENE 6.7 mph / 10.8 km/h - - Fog Partial Fog
11:00 PM 77.0 °F / 25.0 °C 71.6 °F / 22.0 °C 83% 30.01 in / 1016 hPa - Variable 2.2 mph / 3.6 km/h - N/A   Clear